Orbital Elements at Epoch 2459200.5 (2020-Dec-17.0) TDB
Reference: JPL 18 (heliocentric ecliptic J2000)
Element | Value | Uncertainty (1-sigma) | Units |
e | .2231322347290425 | 3.9276e-08 | |
a | 2.373796272214399 | 9.2167e-09 | au |
q | 1.84412580520373 | 8.9944e-08 | au |
i | 3.082718034813561 | 3.8496e-06 | deg |
node | 93.70560172838425 | 7.9798e-05 | deg |
peri | 235.573674830502 | 8.045e-05 | deg |
M | 60.32831320596411 | 9.7732e-06 | deg |
tp | 2458976.637023512650 (2020-May-07.13702351) | 3.5749e-05 | TDB |
period | 1335.868139729104 3.66 | 7.7801e-06 2.13e-08 | d yr |
n | .2694876756870654 | 1.5695e-09 | deg/d |
Q | 2.903466739225069 | 1.1273e-08 | au |
|
| | Orbit Determination Parameters
Additional Information
|